Location: Bocianicha
(51.5066°N, 19.2563°E)
Time: 13:51:34
(UTC+00:00)

CZ-2D R/B - Pass Details

Date: 15 June 2025
Orbit: 789 x 842 km, 98.8° (Epoch: 17 July)

Event Time Altitude Azimuth Distance (km) Brightness Sun altitude
Rises 00:14:43 0° 22° (NNE) 3,395 7.5 -12.5°
Reaches altitude 10° 00:17:26 10° 34° (NE) 2,448 6.0 -12.4°
Maximum altitude 00:22:04 28° 93° (E) 1,494 3.7 -12.1°
Drops below altitude 10° 00:26:38 10° 152° (SSE) 2,403 4.2 -11.8°
Enters shadow 00:27:58 - 159° (SSE) 2,853 4.5 -11.7°
